www.pogodaiklimat.ru

Погода и климат >> Архив погоды >> Япония >> Tokyo


АРХИВ ПОГОДЫ в Tokyo

Время (UTC), дата Ветер
(напр.,м/с)
 
Видим.   Явления Облачность Т
(С)
Тd
(С)
f
(%)
Тe
(С)
Тes
(С)
Комфортность P
(гПа)
Po
(гПа)
Тmin
(С)
Tmax
(С)
R
(мм)
R24
(мм)
S
(см)
16 10.08 СВ 3 н/о н/о +22.1 +21.9 99 +29 +29 очень
душно
1003.5 1000.7
17 10.08 СВ 3 н/о н/о +22.0 +21.8 99 +29 +29 очень
душно
1003.6 1000.8
18 10.08 СВ 3 6000 м слабый ливневой дождь 10/10
[Cu Sc]
+22.0 +21.8 99 +29 +29 очень
душно
1003.9 1001.1 13
20 10.08 СВ 3 н/о н/о +21.9 +21.6 98 +28 +28 душно 1004.5 1001.7
19 10.08 В 3 н/о н/о +21.9 +21.7 99 +29 +29 очень
душно
1003.9 1001.1
21 10.08 СВ 2 8000 м слабый ливневой дождь 10/10
[Cu Sc]
+21.9 +21.4 97 +28 +28 душно 1004.9 1002.1
22 10.08 СВ 3 н/о н/о +22.1 +21.6 97 +29 +29 очень
душно
1005.1 1002.3
23 10.08 СВ 2 н/о н/о +22.2 +21.9 98 +29 +29 очень
душно
1005.4 1002.6
00 11.08 СВ 2 6000 м в посл. час дождь {ливн. осадки} 10/10 300 м
[Cu Sc]
+22.4 +21.9 97 +30 +30 очень
душно
1005.6 1002.8 +21.7 13
02 11.08 СВ 2 н/о н/о +23.0 +22.0 94 +31 +31 очень
душно
1005.9 1003.1
01 11.08 В 2 н/о н/о +23.0 +21.8 93 +31 +31 очень
душно
1005.7 1002.9
03 11.08 В 2 7000 м в посл. час дождь 10/9
[Sc Ac As]
+23.7 +22.5 93 +31 +32 очень
душно
1005.4 1002.6
04 11.08 В 3 н/о н/о +24.0 +21.9 88 +31 +31 очень
душно
1005.1 1002.3
05 11.08 ЮВ 3 н/о н/о +24.4 +21.7 85 +31 +31 очень
душно
1004.9 1002.1
06 11.08 СВ 2 10 км слабый дождь 10/10
[Sc]
+24.0 +22.4 91 +31 +31 очень
душно
1005.0 1002.2
08 11.08 ЮВ 2 н/о н/о +24.2 +21.7 86 +31 +31 очень
душно
1004.9 1002.1
07 11.08 В 2 н/о н/о +24.5 +22.2 87 +32 +32 очень
душно
1004.9 1002.1
09 11.08 СВ 3 10 км в посл. час дождь 10/10 600 м
[Sc]
+24.0 +21.3 85 +30 +30 очень
душно
1005.4 1002.6
10 11.08 В 3 н/о н/о +23.5 +21.2 87 +30 +30 очень
душно
1005.7 1002.9
11 11.08 СВ 2 н/о н/о +23.3 +21.2 88 +31 +31 очень
душно
1006.3 1003.5
12 11.08 В 2 10 км слабый дождь 10/10
[Sc]
+22.7 +21.2 91 +30 +30 очень
душно
1006.7 1003.9 +24.8
14 11.08 СВ 3 н/о н/о +22.7 +20.8 89 +30 +30 очень
душно
1006.9 1004.1
13 11.08 В 2 н/о н/о +22.5 +21.0 91 +29 +29 очень
душно
1006.8 1004.0
15 11.08 СВ 2 н/о н/о +22.2 +21.0 93 +29 +29 очень
душно
1006.7 1003.9
16 11.08 СВ 2 н/о н/о +21.8 +21.0 95 +28 +28 душно 1006.4 1003.6
17 11.08 СВ 3 н/о н/о +22.2 +20.7 91 +29 +29 очень
душно
1006.3 1003.5
18 11.08 СВ 3 8000 м слабый ливневой дождь 10/10
[Cu Sc]
+21.5 +20.8 96 +27 +27 душно 1006.6 1003.8 0.5
20 11.08 СВ 2 н/о н/о +21.1 +21.1 100 +26 +26 душно 1006.8 1004.0
19 11.08 С 2 н/о н/о +21.4 +20.9 97 +27 +27 душно 1006.8 1004.0
21 11.08 С 2 4000 м слабый ливневой дождь 10/10
[Cu Sc]
+21.2 +21.2 100 +27 +27 душно 1007.3 1004.5
22 11.08 С 2 н/о н/о +21.4 +21.4 100 +27 +27 душно 1007.4 1004.6
23 11.08 С 2 н/о н/о +21.8 +21.6 99 +28 +28 душно 1007.4 1004.6
00 12.08 С 2 10 км {ливн. осадки} 10/10
[Cu Sc]
+22.6 +21.8 95 +30 +30 очень
душно
1007.5 1004.7 +21.0 10
02 12.08 С 3 н/о н/о +24.7 +22.4 87 +32 +32 очень
душно
1006.9 1004.1
01 12.08 СЗ 1 н/о н/о +23.2 +22.2 94 +32 +32 очень
душно
1007.3 1004.5
03 12.08 СЗ 2 10 км слабый ливневой дождь 10/10
[Cu Sc]
+25.2 +22.5 85 +33 +33 очень
душно
1006.8 1004.0
04 12.08 С 2 н/о н/о +26.9 +23.4 81 +36 +36 очень
душно
1006.1 1003.4
05 12.08 СВ 2 н/о н/о +27.0 +22.4 76 +35 +35 очень
душно
1005.9 1003.2
06 12.08 В 2 15 км {ливн. осадки} 8/8
[Cu med, cong]
+27.8 +23.0 75 +37 +39 очень
душно
1005.6 1002.9
08 12.08 В 2 н/о н/о +26.7 +23.4 82 +36 +36 очень
душно
1005.7 1003.0
07 12.08 СВ 2 н/о н/о +27.5 +22.9 76 +37 +37 очень
душно
1005.7 1003.0
09 12.08 СВ 2 15 км {ливн. осадки} 3/3
[Cu Sc]
+25.9 +23.2 85 +35 +35 очень
душно
1005.9 1003.2
10 12.08 В 2 н/о н/о +25.7 +23.0 85 +34 +34 очень
душно
1006.3 1003.5
11 12.08 СВ 3 н/о н/о +25.7 +23.0 85 +34 +34 очень
душно
1007.0 1004.2
12 12.08 В 2 15 км {ливн. осадки} 4/4
[Cu Sc]
+24.7 +23.0 90 +33 +33 очень
душно
1007.4 1004.6 +29.3 0.0
14 12.08 В 2 н/о н/о +24.5 +22.2 87 +32 +32 очень
душно
1007.4 1004.6
13 12.08 В 2 н/о н/о +24.3 +22.6 90 +32 +32 очень
душно
1007.5 1004.7
15 12.08 ЮВ 2 н/о н/о +24.4 +22.3 88 +32 +32 очень
душно
1007.2 1004.4
16 12.08 ЮВ 1 н/о н/о +23.2 +22.2 94 +32 +32 очень
душно
1006.9 1004.1
17 12.08 В 2 н/о н/о +24.5 +22.6 89 +32 +32 очень
душно
1006.9 1004.1
18 12.08 СВ 1 15 км 9/9
[Sc]
+24.0 +22.4 91 +31 +31 очень
душно
1007.1 1004.3
20 12.08 С 2 н/о н/о +24.3 +22.6 90 +32 +32 очень
душно
1007.5 1004.7
19 12.08 С 2 н/о н/о +24.5 +22.4 88 +32 +32 очень
душно
1007.2 1004.4
21 12.08 С 2 15 км 9/8
[Sc Ac trans Ci sp]
+24.8 +22.7 88 +33 +33 очень
душно
1007.5 1004.7
22 12.08 С 2 н/о н/о +25.7 +23.0 85 +34 +34 очень
душно
1008.0 1005.2
23 12.08 СЗ 2 н/о н/о +26.0 +23.1 84 +35 +35 очень
душно
1008.4 1005.6
00 13.08 СВ 3 15 км 8/3
[Cu med, cong Ac trans Ci sp]
+27.6 +23.2 77 +37 +42 очень
душно
1008.3 1005.6 +23.1
02 13.08 В 3 н/о н/о +29.2 +22.4 67 +38 +38 очень
душно
1008.1 1005.4
01 13.08 СВ 4 н/о н/о +28.8 +22.8 70 +38 +38 очень
душно
1008.3 1005.6
03 13.08 В 3 20 км 9/6
[Cu med, cong Ac trans Ci sp]
+28.8 +22.1 67 +37 +41 очень
душно
1007.7 1005.0
04 13.08 В 3 н/о н/о +29.1 +22.8 69 +39 +39 очень
душно
1007.2 1004.5
05 13.08 В 2 н/о н/о +29.8 +22.5 65 +39 +39 очень
душно
1006.9 1004.2
06 13.08 В 2 20 км 9/6
[Cu med, cong Ac trans Ci sp]
+30.2 +23.6 68 +41 +44 опасность
перегрева
1006.9 1004.2
08 13.08 ЮВ 4 н/о н/о +29.2 +23.4 71 +40 +40 очень
душно
1006.7 1004.0
07 13.08 Ю 2 н/о н/о +28.8 +24.6 78 +41 +41 опасность
перегрева
1006.9 1004.2
09 13.08 ЮВ 2 20 км в посл. час ливневой дождь 9/5
[Cu med, cong Ac As Ci sp]
+28.7 +23.8 75 +40 +40 очень
душно
1007.0 1004.3
10 13.08 В 2 н/о н/о +28.1 +23.7 77 +39 +39 очень
душно
1007.6 1004.9
11 13.08 ЮВ 4 н/о н/о +27.2 +23.9 82 +37 +37 очень
душно
1008.0 1005.3
12 13.08 В 3 15 км {ливн. осадки} 10/6 300 м
[Cu med, cong Ac As]
+26.2 +23.3 84 +35 +35 очень
душно
1008.7 1005.9 +31.2
14 13.08 В 3 н/о н/о +25.7 +23.2 86 +34 +34 очень
душно
1008.4 1005.6
13 13.08 В 3 н/о н/о +25.7 +23.2 86 +34 +34 очень
душно
1008.8 1006.0
15 13.08 СВ 2 н/о н/о +25.0 +23.1 89 +33 +33 очень
душно
1008.3 1005.5
16 13.08 В 3 н/о н/о +24.7 +23.0 90 +33 +33 очень
душно
1008.1 1005.3
17 13.08 В 3 н/о н/о +24.2 +22.6 91 +32 +32 очень
душно
1007.8 1005.0
18 13.08 В 2 10 км 10/10 300 м
[Cu med, cong]
+24.6 +22.5 88 +32 +32 очень
душно
1007.6 1004.8
20 13.08 В 2 н/о н/о +24.3 +22.7 91 +32 +32 очень
душно
1007.8 1005.0
19 13.08 СВ 2 н/о н/о +23.9 +22.7 93 +31 +31 очень
душно
1007.6 1004.8
21 13.08 В 2 8000 м в посл. час ливневой дождь 10/10 300 м
[Cu Sc]
+23.7 +23.0 96 +31 +31 очень
душно
1007.8 1005.0
22 13.08 В 2 н/о н/о +23.7 +23.2 97 +32 +32 очень
душно
1008.0 1005.2
23 13.08 СВ 3 н/о н/о +24.0 +23.0 94 +32 +32 очень
душно
1008.1 1005.3
00 14.08 СВ 3 10 км {ливн. осадки} 10/10 300 м
[Cu Sc]
+24.6 +22.9 90 +33 +33 очень
душно
1008.0 1005.2 +23.4 1
02 14.08 СВ 1 н/о н/о +24.4 +23.6 95 +33 +33 очень
душно
1007.8 1005.0
01 14.08 СВ 2 н/о н/о +24.8 +23.2 91 +33 +33 очень
душно
1007.9 1005.1
03 14.08 СВ 2 10 км слабый ливневой дождь 10/10 300 м
[Cu Sc]
+24.2 +23.4 95 +32 +32 очень
душно
1007.5 1004.7
04 14.08 ЮВ 2 н/о н/о +24.7 +24.2 97 +34 +34 очень
душно
1007.2 1004.4
05 14.08 В 2 н/о н/о +24.6 +23.8 95 +33 +33 очень
душно
1006.9 1004.1
06 14.08 В 2 10 км {ливн. осадки} 10/10 300 м
[Cu Sc]
+24.9 +23.5 92 +34 +34 очень
душно
1006.9 1004.1 1
08 14.08 В 2 н/о н/о +24.6 +24.3 98 +34 +34 очень
душно
1006.6 1003.8
07 14.08 ЮВ 2 н/о н/о +25.1 +23.9 93 +34 +34 очень
душно
1006.8 1004.0
09 14.08 В 2 10 км в посл. час ливневой дождь 10/9 300 м
[Cu med, cong Ac As]
+24.7 +24.0 96 +34 +34 очень
душно
1006.6 1003.8
10 14.08 В 3 н/о н/о +25.0 +23.8 93 +34 +34 очень
душно
1006.9 1004.1
11 14.08 В 3 н/о н/о +25.0 +23.4 91 +34 +34 очень
душно
1007.1 1004.3
12 14.08 В 3 6000 м слабый ливневой дождь 9/9 300 м
[Cu med, cong]
+24.5 +23.3 93 +33 +33 очень
душно
1007.2 1004.4 +25.2 1
14 14.08 В 3 н/о н/о +23.6 +23.4 99 +32 +32 очень
душно
1006.9 1004.1
13 14.08 СВ 3 н/о н/о +23.8 +23.6 99 +32 +32 очень
душно
1007.1 1004.3
15 14.08 В 2 н/о н/о +23.6 +23.4 99 +32 +32 очень
душно
1006.6 1003.8
16 14.08 В 2 н/о н/о +23.6 +23.3 98 +32 +32 очень
душно
1006.3 1003.5
17 14.08 СВ 3 н/о н/о +23.4 +23.1 98 +33 +33 очень
душно
1006.0 1003.2
18 14.08 В 2 8000 м слабый ливневой дождь 10/10 300 м
[Cu med, cong]
+23.3 +23.1 99 +33 +33 очень
душно
1005.7 1002.9 9
20 14.08 СВ 3 н/о н/о +23.3 +23.0 98 +33 +33 очень
душно
1005.6 1002.8
19 14.08 В 3 н/о н/о +23.3 +23.1 99 +33 +33 очень
душно
1005.7 1002.9
21 14.08 В 2 8000 м в посл. час ливневой дождь 10/10 300 м
[Cu med, cong]
+23.3 +23.0 98 +33 +33 очень
душно
1005.8 1003.0
22 14.08 СВ 3 н/о н/о +23.3 +22.8 97 +32 +32 очень
душно
1006.3 1003.5
23 14.08 СВ 2 н/о н/о +24.0 +23.5 97 +32 +32 очень
душно
1006.4 1003.6
00 15.08 В 2 5000 м в посл. час ливневой дождь 10/10 300 м
[Cu med, cong]
+24.1 +23.6 97 +33 +33 очень
душно
1006.2 1003.4 +23.1 9
02 15.08 В 2 н/о н/о +25.8 +24.9 95 +37 +37 очень
душно
1005.7 1003.0
01 15.08 В 3 н/о н/о +24.7 +23.9 95 +34 +34 очень
душно
1006.1 1003.3
03 15.08 ЮВ 2 10 км в посл. час ливневой дождь 10/10 300 м
[Cu Sc]
+25.8 +24.2 91 +36 +36 очень
душно
1005.2 1002.5
04 15.08 ЮВ 3 н/о н/о +25.7 +24.5 93 +36 +36 очень
душно
1004.9 1002.2
05 15.08 СЗ 4 н/о н/о +23.3 +23.3 100 +33 +33 очень
душно
1004.9 1002.1
06 15.08 ЮЗ 1 4000 м ливневой дождь 10/10
[Cu med, cong]
+23.8 +23.8 100 +32 +32 очень
душно
1004.9 1002.1 26
08 15.08 З 1 н/о н/о +23.2 +23.2 100 +33 +33 очень
душно
1005.3 1002.5
07 15.08 СВ 1 н/о н/о +23.5 +23.5 100 +32 +32 очень
душно
1005.0 1002.2
09 15.08 В 3 4000 м слабый ливневой дождь 10/10
[Cu med, cong]
+23.7 +23.7 100 +32 +32 очень
душно
1005.4 1002.6
10 15.08 В 2 н/о н/о +23.7 +23.7 100 +32 +32 очень
душно
1005.8 1003.0
11 15.08 СВ 3 н/о н/о +23.5 +23.3 99 +32 +32 очень
душно
1006.3 1003.5
12 15.08 СВ 3 10 км в посл. час ливневой дождь 10/10 300 м
[Cu med, cong]
+23.1 +22.8 98 +32 +32 очень
душно
1006.5 1003.7 +26.3 42
14 15.08 СВ 3 н/о н/о +22.5 +22.3 99 +30 +30 очень
душно
1006.7 1003.9
13 15.08 СВ 4 н/о н/о +22.8 +22.6 99 +31 +31 очень
душно
1006.6 1003.8
15 15.08 СВ 3 н/о н/о +22.5 +22.5 100 +30 +30 очень
душно
1006.3 1003.5
16 15.08 СВ 2 н/о н/о +22.5 +22.5 100 +30 +30 очень
душно
1006.0 1003.2
17 15.08 С 3 н/о н/о +22.6 +22.6 100 +31 +31 очень
душно
1006.2 1003.4
18 15.08 СВ 3 4000 м слабый ливневой дождь 10/10 300 м
[Cu Sc]
+22.4 +22.4 100 +30 +30 очень
душно
1006.2 1003.4 2
20 15.08 СВ 3 н/о н/о +22.0 +21.7 98 +29 +29 очень
душно
1006.7 1003.9
19 15.08 СВ 3 н/о н/о +22.2 +22.0 99 +29 +29 очень
душно
1006.3 1003.5
21 15.08 СВ 3 8000 м слабый ливневой дождь 10/10 300 м
[Cu Sc]
+21.7 +21.4 98 +28 +28 душно 1007.1 1004.3
22 15.08 СВ 3 н/о н/о +21.7 +21.4 98 +28 +28 душно 1007.4 1004.6
23 15.08 СВ 3 н/о н/о +22.0 +22.0 100 +29 +29 очень
душно
1007.8 1005.0
00 16.08 С 4 8000 м слабый ливневой дождь 10/10 300 м
[Cu Sc]
+21.9 +21.6 98 +28 +28 душно 1007.7 1004.9 +21.6 6
02 16.08 С 2 н/о н/о +21.7 +21.5 99 +28 +28 душно 1008.1 1005.3
01 16.08 С 4 н/о н/о +22.2 +21.4 95 +29 +29 очень
душно
1008.0 1005.2
03 16.08 С 2 3000 м ливневой дождь 10/10
[Cu Sc]
+21.7 +21.7 100 +28 +28 душно 1007.9 1005.1
04 16.08 С 3 н/о н/о +21.7 +21.5 99 +28 +28 душно 1007.6 1004.8
05 16.08 СЗ 3 н/о н/о +21.9 +21.7 99 +29 +29 очень
душно
1007.4 1004.6
06 16.08 СЗ 3 3000 м слабый ливневой дождь 10/10 300 м
[Cu med, cong]
+22.1 +22.1 100 +29 +29 очень
душно
1007.4 1004.6 10
08 16.08 С 3 н/о н/о +21.8 +21.6 99 +28 +28 душно 1007.3 1004.5
07 16.08 С 3 н/о н/о +21.9 +21.7 99 +29 +29 очень
душно
1007.4 1004.6
09 16.08 СЗ 3 4000 м слабый ливневой дождь 10/10
[Cu Sc]
+21.8 +21.8 100 +28 +28 душно 1007.6 1004.8
10 16.08 СЗ 2 н/о н/о +21.9 +21.9 100 +29 +29 очень
душно
1008.2 1005.4
11 16.08 С 2 н/о н/о +21.7 +21.5 99 +28 +28 душно 1008.8 1006.0
12 16.08 СЗ 2 6000 м слабый ливневой дождь 10/10
[Cu Sc]
+21.6 +21.6 100 +28 +28 очень
душно
1008.9 1006.1 +22.3 11
14 16.08 СЗ 2 н/о н/о +21.4 +21.4 100 +27 +27 душно 1008.9 1006.1
13 16.08 СЗ 2 н/о н/о +21.5 +21.5 100 +28 +28 очень
душно
1008.9 1006.1
15 16.08 С 3 н/о н/о +21.2 +21.2 100 +27 +27 душно 1009.0 1006.2
16 16.08 СЗ 3 н/о н/о +21.1 +21.1 100 +26 +26 душно 1008.9 1006.1
17 16.08 С 3 н/о н/о +21.0 +21.0 100 +27 +27 душно 1008.8 1006.0
18 16.08 СЗ 3 10 км слабый дождь {ливн. осадки} 10/10
[Cu Sc]
+21.0 +21.0 100 +27 +27 душно 1008.8 1006.0 5
20 16.08 СЗ 3 н/о н/о +20.9 +20.9 100 +27 +27 душно 1009.6 1006.8
19 16.08 СЗ 3 н/о н/о +21.0 +21.0 100 +27 +27 душно 1009.2 1006.4
21 16.08 СЗ 3 10 км в посл. час дождь 9/9 200 м
[Cu Sc]
+21.2 +21.2 100 +27 +27 душно 1009.6 1006.8
22 16.08 СЗ 2 н/о н/о +21.8 +21.8 100 +28 +28 душно 1010.0 1007.2
23 16.08 С 3 н/о н/о +22.0 +21.7 98 +29 +29 очень
душно
1010.5 1007.7
00 17.08 СЗ 3 15 км {дождь} 10/10
[Cu Sc]
+22.6 +21.8 95 +30 +30 очень
душно
1010.5 1007.7 +20.9 6
02 17.08 С 2 н/о н/о +25.6 +23.1 86 +34 +34 очень
душно
1010.2 1007.4
01 17.08 С 3 н/о н/о +24.4 +22.3 88 +32 +32 очень
душно
1010.4 1007.6
03 17.08 СЗ 3 20 км слабый ливневой дождь 10/10
[Cu Sc]
+25.7 +22.6 83 +34 +34 очень
душно
1010.0 1007.2
04 17.08 С 2 н/о н/о +27.3 +22.5 75 +36 +36 очень
душно
1009.3 1006.6
05 17.08 СВ 3 н/о н/о +26.5 +22.6 79 +35 +35 очень
душно
1009.4 1006.6
06 17.08 СВ 2 20 км {ливн. осадки} 9/9
[Cu Sc]
+27.7 +22.6 74 +37 +38 очень
душно
1008.9 1006.2 0.0
08 17.08 СВ 3 н/о н/о +26.2 +23.7 86 +36 +36 очень
душно
1008.9 1006.1
07 17.08 СВ 2 н/о н/о +26.8 +23.1 80 +36 +36 очень
душно
1008.9 1006.2
09 17.08 В 3 20 км {ливн. осадки} 9/9
[Cu Sc]
+26.6 +22.5 78 +35 +35 очень
душно
1009.1 1006.4
10 17.08 В 3 н/о н/о +26.4 +22.5 79 +35 +35 очень
душно
1009.6 1006.8
11 17.08 В 2 н/о н/о +25.4 +22.3 83 +33 +33 очень
душно
1010.1 1007.3
12 17.08 В 2 20 км {ливн. осадки} 9/8
[Cu Sc Ac trans]
+25.3 +22.2 83 +33 +33 очень
душно
1010.8 1008.0 +28.2
14 17.08 В 2 н/о н/о +24.5 +22.9 91 +32 +32 очень
душно
1010.5 1007.7
13 17.08 СВ 1 н/о н/о +24.7 +22.8 89 +33 +33 очень
душно
1010.8 1008.0

 

Местоположение метеостанции Tokyo (Япония): широта 35.68 долгота 139.76 высота над уровнем моря 36 м.

В архиве по умолчанию представлена погода в Tokyo за последнюю неделю. Архивные данные за месяц целиком и за предыдущие месяцы, начиная с января 2011 года, Вы можете получить, выбрав интересующий диапазон дат из раскрывающегося списка и нажав кнопку "Ввод!".

Внимание! Время в таблицах - всемирное. Для получения местного времени необходимо прибавить поправку, которая в Tokyo равна 9 ч.

Смотрите также архив погоды в соседних городах и на ближайших метеорологических станциях:

Погода в Yokohama (Япония) (30 км)
Погода в Chiba (Япония) (32 км)
Погода в Kumagaya (Япония) (62 км)
Погода в Chichibu (Япония) (71 км)
Погода в Katsuura (Япония) (77 км)
Погода в Tateyama (Япония) (78 км)
Погода в Ajiro (Япония) (92 км)
Погода в Kawaguchiko (Япония) (93 км)
Погода в Utsunomiya (Япония) (97 км)
Погода в Mishima (Япония) (98 км)

Пояснения к столбцам:

Ветер - указаны скорость ветра в м/с - средняя за 10 мин, порывы в срок и между сроками (в фигурных скобках) и направление, откуда дует ветер: С - северный, СВ - северо-восточный, В - восточный, ЮВ - юго-восточный, Ю - южный, ЮЗ - юго-западный, З - западный, СЗ - северо-западный.
Видимость - горизонтальная дальность видимости в метрах или километрах. При видимости от 1 до 10 км при отсутствии осадков обычно наблюдается дымка, при ухудшении видимости до 1 км и менее - туман. В сухую погоду видимость может ухудшаться дымом, пылью или мглою.
Явления - указаны атмосферные явления, наблюдавшиеся в срок или в последний час перед сроком; фигурными скобками обозначены явления, наблюдавшиеся между сроками (за 1-3 часа до срока); квадратными скобками обозначены град или гололедные отложения с указанием их диаметра в мм.
Облачность - указаны через наклонную черту общая и нижняя облачность в баллах и высота нижней границы облаков в метрах; квадратными скобками обозначены формы облаков: Ci - перистые, Cs - перисто-слоистые, Cc - перисто-кучевые, Ac - высококучевые, As - высокослоистые, Sc - слоисто-кучевые, Ns - слоисто-дождевые, Cu - кучевые, Cb - кучево-дождевые. Подробнее классификацию облаков см. в Атласе облаков (PDF).
T - Температура воздуха - температура, измеренная на высоте 2 м над землей.
Td - Температура точки росы - температура, при понижении до которой содержащийся в воздухе водяной пар достигнет насыщения.
f - Относительная влажность воздуха - влажноcть воздуха, измеренная на высоте 2 м над землей.
Te - Эффективная температура - температура, которую ощущает одетый по сезону человек в тени. Характеристика душности погоды. При расчете учитывается влияние влажности воздуха и скорости ветра на теплоощущения человека.
Tes - Эффективная температура на солнце - температура, которую ощущает человек, с поправкой на солнечный нагрев. Характеристика знойности погоды. Зависит от высоты солнца над горизонтом, облачности и скорости ветра. Ночью, в пасмурную погоду, а также при ветре 12 м/с и более поправка равна нулю.
P - Атмосферное давление - приведенное к уровню моря атмосферное давление.
Po - Атмосферное давление - измеренное на уровне метеостанции атмосферное давление.
Tmin - Минимальная температура - минимум температуры воздуха на высоте 2 м над землей.
Tmax - Максимальная температура - максимум температуры воздуха на высоте 2 м над землей.
R - Количество осадков - Количество выпавших осадков за период времени, мм. При наведении курсора мыши на число - период времени, за который выпало указанное количество осадков.
R24 - Количество осадков - Количество выпавших осадков за 24 часа, мм.
S - Снежный покров - Высота снежного покрова, см. При наведении курсора мыши на число - состояние снежного покрова и степень покрытия местности в баллах.